Theta_e
288 288 288 288 288 288 288 288 287 287 287 287 286 286 286 285 286 286 286 287 288 288 288 289 290 291 292 293 294 296 297 297 298 298 299 298 298 297 296 296 296 296 296 296 297 297 296 296 295 293 293 294 296 298 300 301 301 301 301 299 296 299 303 304 304 304 303 303 303 302 302 301 301 302
288 288 288 288 288 288 288 288 288 287 287 287 286 286 286 285 285 285 285 286 287 288 288 288 288 289 289 289 290 292 294 296 297 297 298 298 298 298 297 296 296 296 296 296 296 297 297 296 295 294 293 293 293 294 295 296 297 297 297 295 293 295 300 304 304 303 303 302 302 302 301 301 301 301
288 288 288 288 288 288 288 288 288 288 287 287 286 286 285 285 285 285 284 285 286 287 288 289 289 288 288 288 288 289 290 292 294 296 297 298 298 298 298 297 296 295 295 296 296 296 297 297 296 295 294 293 293 293 293 294 294 294 294 293 293 293 295 301 303 303 302 301 302 302 301 301 301 300
288 288 288 288 288 288 288 288 287 287 287 287 287 286 286 285 285 284 284 284 285 285 286 288 289 288 288 288 288 288 288 289 290 292 295 297 298 298 298 298 297 296 295 295 296 296 296 296 296 296 295 294 293 293 293 293 293 293 293 292 292 291 292 297 302 303 302 301 301 301 301 301 301 300
287 288 288 288 288 288 288 288 287 287 287 287 287 287 286 286 285 285 284 283 284 284 285 286 288 288 288 288 289 288 288 288 288 289 290 293 295 297 298 298 298 298 296 295 295 295 296 296 296 296 296 295 294 293 293 293 293 293 293 292 292 291 290 292 298 301 301 301 301 300 300 300 298 297
287 287 287 287 287 287 287 287 287 287 287 287 287 287 286 286 286 286 285 284 284 284 284 284 286 287 287 288 289 288 288 288 288 288 288 288 291 294 296 298 298 298 297 297 295 295 295 295 296 296 296 296 295 294 293 293 293 293 293 293 291 291 290 290 293 298 300 300 300 299 299 298 297 296
287 287 287 287 287 286 286 287 287 287 287 287 286 287 286 286 286 286 285 285 285 285 285 284 284 285 286 287 288 288 288 288 288 287 288 287 287 289 292 295 297 298 297 297 296 295 295 295 295 295 295 296 296 296 295 294 293 292 292 293 292 291 291 290 291 295 298 299 299 299 299 297 297 297
287 287 287 287 286 286 286 286 286 286 286 286 286 286 286 286 286 286 285 285 285 285 285 285 284 284 285 286 287 287 287 287 287 287 287 287 287 287 288 290 294 297 297 297 297 296 295 294 295 295 295 295 295 296 296 295 294 293 292 292 292 291 291 290 290 292 296 298 297 298 298 297 297 297
286 286 286 286 286 286 286 286 286 286 286 286 286 286 286 286 285 285 285 284 284 284 284 285 285 284 284 285 286 287 286 286 287 287 287 287 287 287 287 287 289 292 295 297 297 297 296 295 294 295 295 295 295 295 295 296 295 294 293 292 292 291 291 291 290 290 293 296 296 296 297 297 297 297
286 285 286 285 285 285 285 285 285 285 285 285 285 285 285 285 284 284 285 284 283 283 283 284 284 284 284 284 285 286 286 286 286 286 287 287 287 287 287 287 287 288 290 293 296 297 296 296 295 294 294 295 295 295 295 295 295 296 295 293 292 292 291 291 291 290 290 292 293 293 295 296 297 297
285 285 285 285 285 285 284 285 284 284 283 283 283 283 283 283 283 283 283 283 282 282 282 283 283 283 283 283 284 285 285 285 285 286 286 286 286 286 286 287 287 287 287 289 292 295 296 296 295 295 294 294 295 295 295 295 295 296 296 295 293 292 291 290 291 290 290 290 290 291 292 294 295 296
285 285 285 285 285 284 284 284 283 282 282 281 281 281 280 280 280 281 281 281 281 281 281 282 282 283 283 283 283 284 284 284 285 286 285 285 286 286 286 286 286 286 286 287 288 291 294 296 296 295 295 294 294 295 295 295 295 295 295 295 294 293 292 290 290 290 290 290 290 291 291 292 293 294
285 285 285 284 284 284 284 283 282 281 280 279 279 279 278 278 278 278 278 279 279 279 280 281 281 282 282 283 283 284 283 283 284 285 284 284 285 285 285 285 286 286 286 286 286 287 290 294 296 296 295 295 294 294 295 295 295 295 295 295 295 294 292 291 290 290 290 290 290 290 291 291 292 293
284 284 284 284 284 283 283 282 281 280 279 278 277 277 277 276 276 277 277 278 278 278 278 279 280 280 281 282 283 283 283 283 284 284 283 284 284 284 284 285 285 285 285 285 286 286 287 289 293 296 296 296 295 294 294 294 295 295 295 295 295 295 293 292 290 289 290 290 290 290 290 291 291 293
284 284 283 283 283 282 281 280 280 279 278 278 277 277 277 276 276 276 276 277 278 278 278 279 279 280 280 281 282 283 283 284 284 284 284 284 284 284 284 285 285 285 285 285 286 286 286 286 288 292 295 296 296 295 294 294 294 294 294 295 295 295 294 293 291 290 289 290 290 290 290 290 291 292
283 282 282 281 281 280 280 279 278 278 278 278 278 278 277 276 275 275 275 275 276 276 277 278 278 279 280 280 281 282 283 283 284 284 284 284 284 284 284 285 285 284 285 286 286 285 285 286 286 287 290 294 296 296 295 294 293 293 293 294 294 294 295 294 292 291 289 289 290 290 290 290 291 291
281 281 280 280 279 279 278 277 277 277 277 277 277 277 276 275 274 273 273 274 274 275 275 275 276 277 278 278 279 280 281 282 282 283 284 284 284 284 285 285 285 284 285 286 286 286 285 286 286 286 287 290 293 295 295 295 294 293 292 293 293 294 294 294 293 292 290 289 289 289 290 290 290 291
280 279 278 278 277 277 276 276 276 276 276 275 275 274 273 272 271 272 272 273 273 274 274 274 275 275 276 276 277 277 278 279 279 280 282 283 284 284 285 285 285 285 285 286 287 287 286 286 287 286 286 287 289 292 295 295 294 294 293 292 292 292 293 293 293 293 292 290 289 289 289 290 290 290
279 278 277 276 276 275 275 275 275 275 274 274 273 272 271 271 271 271 272 272 273 273 274 274 275 275 275 275 276 276 277 278 278 279 280 281 282 283 283 284 284 284 285 285 286 286 286 286 287 286 285 286 287 289 292 294 294 294 294 293 292 291 291 292 292 293 292 291 289 289 289 289 289 290
277 277 276 275 274 274 274 274 274 274 273 272 271 271 271 272 272 272 272 273 273 274 274 275 275 275 276 276 276 277 277 278 279 280 280 281 282 282 283 283 283 283 284 285 285 286 285 286 287 286 285 285 286 286 288 291 293 294 294 293 293 291 291 291 291 292 292 292 290 289 288 289 288 289
276 275 274 273 273 273 273 274 274 273 272 272 272 272 272 272 272 272 273 273 274 274 274 274 275 275 275 276 276 277 278 278 278 279 280 281 282 282 283 284 284 284 284 284 285 286 285 285 286 286 286 286 286 286 286 288 291 293 293 293 293 293 291 291 291 291 291 291 291 289 289 289 288 288
276 275 274 273 273 273 273 273 273 272 272 273 273 273 273 273 273 273 274 274 274 275 275 275 275 275 275 275 275 276 276 276 277 277 278 279 279 280 281 283 283 284 285 285 285 285 285 285 285 286 286 287 287 286 286 286 288 290 292 293 293 293 292 291 290 290 291 291 291 290 289 289 289 288
275 274 274 273 273 273 273 273 273 273 273 273 273 273 274 274 274 275 275 275 275 275 275 275 275 275 275 275 275 275 275 275 275 276 276 277 277 278 279 280 281 283 284 285 285 285 285 285 286 286 286 287 287 286 286 286 286 288 291 292 292 292 293 292 291 290 290 290 290 290 289 289 290 289
274 273 272 273 273 273 273 273 273 273 274 274 275 275 275 275 275 276 276 276 276 276 276 276 276 276 276 276 275 275 275 275 275 275 275 275 276 276 277 279 280 281 283 284 285 285 286 285 285 286 286 286 286 286 286 286 286 288 289 290 291 292 292 292 291 290 290 290 290 290 290 289 290 289
272 272 272 272 273 273 273 273 274 274 275 276 276 276 276 276 276 276 276 276 276 276 276 276 276 275 275 275 275 275 275 275 275 275 275 275 275 276 276 277 278 280 281 283 284 285 285 286 286 286 286 286 286 286 287 287 287 287 289 290 290 291 291 291 291 291 290 290 290 291 290 290 290 289
272 272 272 272 272 273 273 274 274 275 276 276 276 276 276 277 277 277 276 276 276 276 276 276 275 275 275 275 275 275 275 275 275 275 275 275 275 275 276 276 277 278 279 280 282 283 284 285 285 286 286 286 286 287 287 287 287 287 288 289 289 290 290 290 290 291 290 290 290 290 290 290 290 290
272 272 272 272 273 273 274 275 275 275 276 276 276 276 276 276 276 276 276 276 275 276 275 275 275 275 275 275 275 275 275 276 276 275 275 275 275 275 275 276 277 277 278 278 280 282 283 284 285 286 286 286 286 287 287 287 287 287 288 288 288 289 289 289 290 290 290 290 289 289 290 290 290 290
271 272 272 272 273 274 275 275 275 275 276 275 275 275 276 276 276 275 275 275 275 275 275 275 274 274 275 275 275 275 276 276 275 275 275 274 274 274 275 275 276 277 277 278 279 280 282 283 284 285 286 286 286 286 287 287 287 287 287 288 288 288 288 288 289 290 290 289 289 289 289 290 290 290
272 272 272 273 273 274 274 274 274 275 275 275 275 275 275 275 275 275 275 274 274 274 274 274 274 275 275 275 275 275 275 274 274 274 274 274 274 274 274 275 275 276 277 278 278 279 280 282 283 284 285 286 286 286 286 287 287 287 287 287 287 288 288 288 288 289 289 289 288 288 289 289 290 290
272 272 273 273 273 273 274 274 274 274 274 274 274 274 275 274 274 274 274 273 273 273 274 274 274 275 275 275 274 274 273 273 273 273 274 274 274 274 274 274 275 275 276 277 278 278 279 281 282 283 284 285 286 286 286 286 286 286 287 287 287 287 287 288 288 288 289 289 288 288 288 289 289 290
272 273 273 273 273 273 273 273 273 273 273 273 273 274 274 274 274 274 274 273 273 273 273 273 273 274 274 274 274 273 273 273 273 273 274 274 274 274 274 274 275 275 276 277 277 278 279 279 281 282 283 284 285 286 286 286 286 286 286 287 287 287 287 287 288 288 288 289 288 288 288 288 289 289
273 273 273 273 273 274 273 273 272 272 272 272 272 273 274 274 274 275 275 274 273 273 273 273 273 274 274 274 274 274 274 274 274 274 274 274 274 274 274 275 275 276 277 277 278 278 279 279 280 281 282 283 284 285 286 286 286 286 286 286 287 287 287 287 287 288 288 288 288 287 287 288 289 289
272 272 273 273 273 273 273 273 273 272 272 273 273 273 274 274 274 275 274 274 274 274 273 273 274 274 274 274 275 275 274 274 274 274 274 274 274 275 275 275 276 276 277 278 278 279 279 279 280 281 282 283 283 284 285 286 286 286 286 286 286 286 286 287 287 287 288 288 287 287 287 287 288 288
272 272 272 272 273 272 272 272 272 272 273 273 273 274 274 274 274 274 274 274 274 274 273 274 274 275 275 275 275 275 275 275 275 275 275 275 275 275 275 276 276 277 278 278 279 279 280 280 281 282 282 283 283 284 284 285 286 286 286 286 286 286 286 286 286 287 287 287 288 287 287 287 287 288
272 272 272 272 272 272 271 271 271 271 272 272 272 273 274 274 275 275 275 275 275 274 274 274 275 275 276 276 276 276 275 275 275 275 275 275 275 275 276 276 277 278 279 279 280 280 281 281 282 283 283 283 283 284 284 285 285 286 286 286 286 286 286 286 286 286 286 287 287 287 287 287 287 287
272 271 271 271 271 271 271 271 271 271 271 271 272 272 273 273 274 274 275 275 275 275 275 274 275 276 276 276 276 276 275 275 275 275 275 275 276 276 277 277 278 279 280 281 281 281 281 281 282 283 283 284 284 284 284 285 285 285 286 286 286 286 286 286 286 286 286 286 286 287 287 287 287 287
272 271 271 271 271 270 270 270 270 270 271 271 271 272 272 272 273 274 274 274 274 274 274 274 275 276 276 277 277 277 276 276 276 276 276 277 277 277 278 279 280 281 282 282 282 282 282 282 283 283 284 284 284 284 284 285 285 285 285 285 286 286 286 286 285 285 285 286 286 286 287 287 287 287
271 271 271 270 270 270 270 270 270 270 271 271 271 271 271 272 272 273 273 273 273 274 275 274 274 275 276 277 277 277 277 277 277 277 277 278 278 278 279 280 281 282 283 283 283 283 283 283 283 284 284 284 284 284 284 284 284 285 285 285 285 285 285 285 285 285 285 285 285 286 286 286 286 286
270 270 269 269 269 269 269 270 269 270 270 270 270 271 271 271 272 272 273 273 273 274 274 274 274 275 276 276 277 277 277 278 278 278 278 278 278 279 280 281 281 282 283 283 284 284 283 283 284 284 284 284 284 284 284 284 284 284 284 285 285 285 285 285 285 285 285 285 285 285 285 285 285 285
271 270 269 269 269 269 269 269 269 269 269 269 269 270 270 270 271 271 272 272 273 273 274 274 274 275 275 276 276 277 277 278 278 278 279 279 279 280 280 281 281 282 283 283 284 284 284 284 284 284 284 283 283 283 283 283 283 283 283 283 284 285 285 285 285 285 285 285 284 285 285 285 284 284
271 270 270 269 269 269 269 269 269 269 269 269 269 269 269 270 270 271 271 271 272 272 273 273 274 274 275 276 276 276 277 278 278 279 279 279 280 280 281 281 281 282 282 283 284 284 284 284 284 284 284 283 283 283 282 282 282 282 282 283 284 285 285 285 285 285 285 284 284 284 284 284 284 283
270 270 270 269 269 268 268 268 269 269 269 269 269 268 269 269 270 270 270 271 272 272 272 273 274 274 275 275 276 276 276 277 278 279 279 280 280 281 281 281 282 282 282 283 283 284 284 284 284 284 284 283 283 283 283 282 282 282 283 283 284 284 284 284 284 284 284 284 284 284 283 283 282 281
270 270 270 270 269 269 269 268 268 268 268 269 268 268 268 269 269 270 270 271 271 271 272 273 274 274 274 275 275 276 276 277 277 278 279 280 280 281 281 281 282 282 282 283 283 283 283 283 284 284 284 283 283 283 282 282 282 282 283 283 283 283 283 283 283 283 282 282 283 283 283 283 283 282
270 270 270 270 270 270 269 269 268 268 268 268 268 268 268 268 269 269 270 270 270 271 271 272 273 274 274 275 275 276 276 277 277 278 278 279 280 281 281 281 282 282 282 283 283 283 283 283 283 283 283 283 283 283 282 282 282 282 282 282 283 283 282 282 282 282 281 281 281 282 282 283 283 283
270 270 270 270 270 270 270 270 269 268 268 268 268 268 268 268 268 269 269 270 270 271 271 272 272 273 274 274 275 275 276 276 277 278 278 279 280 280 281 281 282 282 282 282 283 283 283 283 283 283 283 283 282 282 282 281 281 281 281 281 281 281 281 281 281 281 280 280 280 281 281 281 282 282
Wind_Speed
27 28 29 31 31 31 31 31 31 30 30 30 29 29 27 26 29 33 38 46 47 45 45 44 42 41 38 37 36 35 35 35 34 33 33 33 33 33 35 36 36 35 34 32 31 33 37 40 40 40 42 44 45 46 46 45 45 42 37 32 29 28 29 29 27 27 25 21 20 21 21 20 20 20
29 30 31 33 34 34 34 34 33 33 32 32 31 31 30 29 30 30 33 42 46 46 47 47 45 45 43 41 39 38 36 35 35 36 37 37 35 34 34 35 36 36 35 34 32 32 34 38 41 41 42 43 44 45 45 45 44 43 41 37 33 31 31 29 28 30 29 25 21 21 22 21 21 21
33 34 34 35 35 36 36 36 36 35 34 34 33 33 33 32 33 33 33 40 46 44 46 49 48 46 46 44 43 42 39 36 35 35 36 38 38 38 37 36 36 36 36 36 34 32 32 35 38 41 42 43 44 44 44 44 44 43 42 39 35 33 34 32 30 32 33 29 24 24 24 22 22 22
35 37 38 39 40 40 40 39 38 37 36 36 36 35 36 35 35 36 35 41 48 46 44 48 50 47 47 47 47 46 44 40 37 36 35 36 37 38 40 40 38 37 37 37 36 34 32 32 35 39 42 43 44 45 44 43 43 43 42 40 37 36 37 36 34 34 34 29 25 26 25 23 22 23
33 36 38 39 41 42 43 43 42 42 40 38 38 37 37 38 37 38 38 42 50 50 45 46 49 48 48 50 49 48 47 45 40 39 37 36 35 36 38 40 41 40 39 39 38 37 35 33 33 35 39 43 44 45 45 44 43 43 42 40 39 38 39 40 39 37 35 32 30 30 28 26 25 25
34 36 37 38 39 39 41 42 43 44 44 43 43 41 40 40 40 39 40 42 48 52 50 47 48 48 47 49 50 48 49 48 45 43 41 38 36 36 36 37 39 40 40 41 41 40 38 36 35 34 35 39 41 43 45 45 45 44 43 42 40 40 40 41 41 41 38 36 34 33 31 29 27 27
37 38 39 39 39 39 40 40 40 41 43 44 46 46 45 45 44 42 41 42 46 52 53 49 47 48 48 48 50 49 50 50 48 47 46 42 39 37 36 37 37 38 39 40 41 42 41 40 38 37 36 36 38 39 41 44 45 46 45 43 42 42 41 41 43 44 42 38 35 34 33 30 28 28
40 41 42 42 43 42 42 42 41 40 41 42 44 47 48 49 49 48 44 43 45 49 53 52 49 48 49 49 50 50 51 51 50 50 49 46 43 40 38 37 37 37 37 39 41 42 43 43 41 40 39 38 38 38 40 41 43 45 47 46 44 43 43 43 43 44 43 40 38 37 35 32 30 29
42 43 45 45 46 46 46 47 46 45 44 44 45 46 47 49 50 51 49 48 46 47 52 54 52 49 49 49 49 49 50 52 52 52 51 49 47 45 41 39 38 37 36 37 39 41 43 44 44 43 42 42 42 41 41 42 42 43 46 47 46 45 45 45 44 44 46 44 41 39 36 32 31 30
45 46 47 47 47 48 49 50 50 50 49 48 48 48 48 49 49 50 51 51 48 47 50 53 53 50 48 48 49 49 48 50 53 53 53 52 50 48 46 43 40 37 36 36 36 38 40 42 44 45 44 43 44 44 44 45 44 43 44 46 47 47 46 46 46 45 47 48 46 43 39 35 32 32
46 47 48 49 49 49 50 51 51 51 50 50 50 49 48 47 47 48 50 50 49 49 51 53 53 50 46 44 46 47 45 46 49 52 53 54 52 50 48 47 43 39 37 36 36 36 37 39 42 44 45 45 45 46 47 47 46 45 43 43 45 47 47 47 47 47 47 49 49 46 43 39 36 34
46 47 48 49 50 50 51 51 51 50 49 48 49 49 45 43 44 46 47 48 48 48 49 52 53 50 46 43 42 43 42 43 48 50 49 51 53 52 49 48 46 43 40 39 37 36 36 37 39 42 45 47 47 47 48 48 48 47 45 43 44 46 47 48 48 48 48 49 48 46 44 42 40 37
48 49 49 50 51 51 51 51 50 49 47 44 45 46 43 40 40 42 43 44 45 45 47 50 51 50 48 45 41 40 40 40 44 46 44 45 51 52 50 50 49 46 43 41 39 37 36 37 38 40 44 48 49 49 48 49 50 49 48 46 45 45 46 48 49 49 48 49 48 47 46 44 42 40
50 51 52 52 52 52 51 51 49 47 45 42 41 41 39 37 36 38 39 40 41 42 44 47 50 50 51 50 44 41 41 38 38 40 41 42 47 48 48 51 52 48 43 41 40 39 36 35 37 39 41 45 48 50 51 50 50 49 48 47 46 45 46 47 49 49 49 49 49 48 47 45 44 42
52 53 53 53 53 52 51 50 48 46 45 42 40 38 37 34 33 34 36 38 39 40 41 44 45 46 50 51 47 43 42 39 35 35 36 38 41 43 43 47 51 49 43 39 40 40 37 34 36 38 40 41 44 48 52 52 50 48 48 48 48 46 46 47 48 49 50 50 50 49 48 47 46 44
53 53 53 52 52 51 50 48 47 45 43 40 38 37 35 32 30 30 31 35 38 39 41 43 45 46 47 47 45 41 38 36 34 33 34 35 37 39 40 41 47 49 43 38 40 43 41 37 36 38 39 39 41 43 48 50 50 49 48 48 48 47 47 48 49 50 51 51 51 51 50 49 48 46
52 52 52 51 51 50 48 46 44 43 41 39 37 36 34 32 30 27 26 28 31 35 38 43 49 51 49 47 47 44 39 37 37 36 36 35 34 36 39 40 43 45 42 39 40 45 45 40 38 40 40 38 38 39 42 46 48 50 49 48 48 47 47 48 49 50 51 51 52 52 52 51 50 47
50 50 49 49 48 47 45 44 42 41 39 37 35 34 32 30 29 27 27 27 27 29 32 37 44 48 46 47 51 51 46 44 43 41 40 39 37 38 40 41 43 42 40 39 40 45 48 44 41 44 43 39 39 39 39 41 43 46 48 47 47 47 47 47 48 50 50 51 53 53 53 52 51 49
49 48 47 46 45 45 43 41 39 36 34 33 33 33 32 31 31 30 29 28 29 29 31 34 39 42 41 42 45 46 44 43 42 40 41 42 42 43 44 45 46 45 43 41 40 45 50 46 43 46 46 42 41 40 39 39 39 42 45 45 45 45 47 47 48 49 51 51 52 53 54 53 52 50
47 46 45 43 42 42 42 39 34 30 29 30 33 34 35 36 36 35 33 30 30 30 31 34 36 38 39 38 39 40 39 38 38 38 40 41 42 44 46 47 49 48 46 44 42 45 50 48 45 47 48 45 43 43 41 39 38 39 42 44 43 42 44 46 47 48 49 51 52 52 52 53 52 51
45 43 41 40 40 40 39 36 31 28 29 32 36 38 39 39 39 38 36 33 31 31 31 33 35 37 37 37 37 37 36 36 35 35 39 42 41 40 42 45 47 48 47 44 41 42 49 51 48 48 48 46 45 44 42 41 39 38 39 41 43 42 41 42 45 47 48 48 50 51 51 51 50 49
43 41 39 36 36 37 37 34 31 30 31 34 36 38 39 39 39 39 38 37 37 36 36 36 36 37 37 36 36 36 35 33 31 31 38 42 41 41 43 44 46 47 46 44 41 41 45 49 48 46 45 45 46 46 44 42 41 39 38 39 41 42 41 40 42 44 46 47 48 49 50 49 47 46
42 40 39 36 34 34 34 32 30 30 32 33 34 35 37 39 40 39 39 40 41 41 41 40 40 39 39 38 38 39 38 36 34 33 37 39 40 43 48 48 46 46 44 41 39 42 45 46 46 44 42 43 46 46 44 42 42 41 39 38 39 40 41 41 40 40 42 45 46 48 48 47 44 44
43 42 41 38 34 31 31 31 30 30 29 30 32 34 36 40 41 40 40 42 42 42 42 41 41 41 41 40 41 42 42 41 40 38 38 38 38 41 46 49 49 49 48 41 35 37 40 42 44 44 42 43 45 44 42 41 40 40 38 38 38 38 39 39 39 39 41 42 43 45 46 46 45 46
42 42 41 39 36 34 32 31 30 30 28 28 32 35 38 41 41 40 42 42 41 41 41 41 41 41 41 41 42 43 44 43 42 40 39 39 38 39 43 47 49 53 56 51 42 38 39 40 41 42 42 44 46 46 42 39 39 39 37 36 36 36 36 37 39 41 42 42 42 43 44 45 45 47
40 40 40 39 38 36 35 33 33 32 31 32 35 37 38 39 38 39 41 41 40 40 41 42 44 44 44 44 45 45 45 44 43 42 42 41 40 40 42 45 47 51 56 55 48 44 45 46 44 43 43 43 45 46 45 42 41 40 39 37 36 35 34 35 37 40 41 43 44 45 45 44 44 45
40 41 42 41 40 38 37 37 36 36 35 36 38 39 38 38 39 40 40 40 41 43 44 46 48 48 46 46 46 46 45 44 43 43 43 42 41 41 42 44 45 48 51 51 49 47 49 51 50 46 44 44 44 45 45 44 43 42 40 40 39 36 35 34 35 37 39 41 44 46 46 45 44 44
40 42 42 42 41 40 38 38 38 37 37 38 38 39 38 38 39 40 41 42 44 46 47 48 49 48 46 45 46 47 46 45 45 44 44 43 41 41 42 44 46 47 47 47 49 50 51 54 53 49 46 45 46 46 45 44 44 43 42 40 39 38 37 36 35 36 37 38 42 45 47 48 48 46
39 40 40 40 41 40 39 39 39 38 39 39 39 38 38 38 39 41 42 44 45 46 47 47 48 48 47 47 48 48 47 46 46 45 44 44 43 42 42 43 45 48 48 47 47 50 52 54 54 52 49 47 47 48 47 45 44 44 43 41 40 39 37 36 36 36 36 38 41 44 48 50 51 50
38 39 40 40 40 39 38 38 39 40 40 39 39 40 39 39 40 41 41 42 43 45 46 47 48 49 48 48 48 47 46 46 46 45 44 45 45 44 43 43 44 46 48 48 48 49 52 53 53 52 52 50 49 50 48 46 44 44 43 42 40 38 37 36 36 36 37 37 39 42 46 49 51 52
39 40 40 39 39 40 40 39 39 39 39 38 39 40 40 39 39 39 39 39 40 42 44 45 46 47 46 46 46 45 45 46 46 44 43 44 45 44 42 43 45 45 45 46 47 48 50 52 52 53 54 52 50 50 49 47 45 44 44 43 41 39 38 37 36 36 36 37 38 41 45 48 51 53
38 40 42 43 43 43 43 41 38 37 36 37 38 38 37 37 36 35 34 34 36 38 40 42 43 44 44 45 45 45 45 45 45 43 42 43 44 42 40 42 45 45 43 44 46 46 46 48 50 52 55 55 53 50 47 46 46 45 44 44 43 41 40 39 37 36 35 35 38 41 44 48 51 53
39 43 44 42 41 40 40 39 38 37 36 36 35 34 34 33 32 31 31 33 35 37 38 40 42 43 44 46 46 46 46 46 44 42 42 42 42 40 40 42 44 45 45 46 47 47 45 45 46 49 53 55 53 51 48 45 45 45 45 44 43 42 41 40 39 37 36 36 38 41 44 47 50 52
40 42 41 39 37 38 39 39 37 36 35 35 34 34 32 31 30 30 31 32 34 35 36 38 40 42 43 44 45 45 45 45 43 42 41 40 40 39 40 43 45 46 47 48 49 47 44 43 43 46 49 50 50 51 51 48 46 45 44 44 44 43 43 42 40 38 37 37 38 40 43 46 48 51
38 37 36 36 36 35 35 35 34 34 33 33 33 33 32 31 30 29 30 31 33 34 35 36 37 39 40 41 42 42 42 42 41 41 40 39 39 40 41 43 46 48 48 47 46 45 42 40 41 42 44 45 46 48 50 51 48 44 42 44 45 44 43 42 41 39 39 38 38 40 42 45 47 49
34 33 33 33 33 32 31 31 31 32 32 32 32 32 32 32 31 29 29 30 32 34 34 35 36 37 37 37 38 38 38 37 37 37 38 38 38 39 40 42 45 47 46 44 42 41 39 38 40 40 40 39 38 39 43 47 48 46 42 42 44 45 43 41 40 39 39 39 39 40 42 44 46 48
29 29 29 29 29 29 29 29 30 30 30 30 30 30 31 31 31 30 29 31 33 34 33 32 34 36 35 35 35 35 35 34 34 35 35 37 38 39 40 42 42 40 38 38 37 37 37 38 40 41 39 35 33 33 34 36 40 44 44 43 42 43 42 40 40 39 39 40 41 41 41 42 44 46
26 26 27 27 28 28 28 28 29 29 29 29 29 29 30 31 31 31 31 32 34 34 33 32 33 34 33 33 34 34 34 33 34 35 36 37 38 38 39 40 38 33 32 33 35 37 37 38 39 40 38 34 32 31 30 29 31 37 42 43 42 41 40 39 39 39 40 40 41 41 41 42 44 44
25 26 27 27 28 28 28 27 28 28 28 29 29 29 30 31 31 31 31 32 33 33 33 33 33 33 32 32 33 34 35 34 34 35 36 35 36 36 36 36 34 31 29 31 34 37 39 39 38 37 34 33 32 32 31 30 31 34 37 39 41 41 41 41 41 41 41 41 41 41 42 43 43 42
25 26 26 27 27 27 27 27 27 28 28 29 29 30 30 31 31 30 31 32 33 34 33 33 32 32 31 31 31 33 35 35 34 34 34 34 34 33 32 31 31 30 29 29 30 34 39 41 39 34 30 28 29 29 27 27 29 33 34 35 37 40 42 43 43 42 42 42 41 42 43 44 43 42
27 27 27 27 27 27 26 26 27 27 28 28 29 30 31 31 30 30 30 31 32 33 33 33 33 32 30 29 29 30 33 34 35 34 33 33 33 31 29 28 28 29 29 29 28 29 32 35 34 31 26 23 24 26 26 27 29 32 34 34 35 38 41 42 42 42 42 41 41 42 43 43 43 43
27 28 28 28 28 27 26 26 26 27 27 28 29 30 32 32 31 30 30 30 30 30 32 33 33 32 30 28 27 27 28 30 31 32 33 31 29 28 27 26 26 27 27 29 30 29 29 30 31 31 28 24 23 25 28 30 31 32 33 34 35 35 37 39 40 40 40 40 41 41 40 39 39 40
26 27 28 28 29 28 26 25 25 26 27 28 29 30 32 33 33 32 32 31 31 30 31 31 31 31 30 29 27 26 26 26 26 28 30 28 25 25 25 24 23 25 25 26 28 29 30 30 30 30 29 27 25 26 27 28 30 32 33 33 32 31 33 36 37 37 37 38 39 40 40 40 39 39
26 26 27 28 29 29 27 26 25 26 26 27 28 29 31 32 34 34 33 32 31 31 31 30 30 29 29 29 28 26 25 25 24 24 25 25 23 22 22 20 19 21 22 22 22 23 25 26 26 26 27 27 26 26 27 28 30 31 31 30 29 28 30 32 34 34 34 35 36 38 39 41 41 40
25 25 26 27 28 29 28 27 26 26 26 27 28 28 30 32 34 35 34 33 31 31 31 30 29 29 28 27 27 26 25 24 22 20 20 20 19 18 18 18 19 19 20 19 18 19 20 21 21 23 25 26 26 27 28 29 29 29 28 27 26 26 27 29 31 32 33 32 33 35 37 39 40 40
Wind_Direction
330 330 330 330 329 328 326 323 320 317 314 311 309 306 305 304 304 305 306 307 308 310 310 311 310 312 313 312 311 309 304 299 293 287 281 277 272 268 267 266 265 264 266 269 270 268 263 257 252 248 245 245 246 249 250 253 255 255 253 252 251 242 241 244 241 238 237 234 234 233 233 233 227 221
325 325 325 325 324 324 322 321 318 315 312 308 305 302 300 297 295 294 295 297 300 304 306 306 307 308 309 309 308 307 305 303 299 293 287 282 277 272 268 266 265 263 263 265 267 268 266 261 255 251 248 247 248 249 251 253 255 256 256 257 256 244 238 241 241 241 241 237 234 233 233 233 230 223
322 321 321 321 321 321 319 318 316 313 310 307 304 300 297 294 292 291 290 289 291 296 300 301 303 303 304 305 304 302 302 303 302 298 293 288 283 277 271 267 265 264 263 263 265 266 267 265 260 255 251 250 249 250 252 253 254 256 257 256 255 248 240 237 237 240 242 239 234 233 233 232 232 228
319 318 319 319 320 320 318 317 314 312 309 306 304 301 298 295 292 291 290 287 288 290 292 294 297 298 299 300 299 299 300 301 301 300 298 295 290 283 276 271 267 264 263 262 264 264 265 266 264 260 256 252 251 251 252 253 254 256 257 255 253 250 243 236 233 236 239 236 232 232 233 233 234 233
315 315 316 316 317 317 317 316 314 312 309 306 303 301 299 297 295 294 292 290 290 291 289 290 291 293 294 295 295 297 298 298 299 298 297 296 295 291 285 278 272 267 264 262 262 263 264 264 264 263 260 256 253 252 252 253 254 255 256 254 251 248 244 238 234 234 236 235 235 236 236 237 239 237
312 313 313 314 313 313 312 312 311 310 308 307 305 302 300 298 296 295 294 292 292 292 291 290 289 288 289 289 291 292 293 295 296 295 295 295 295 293 290 285 279 273 268 265 263 262 263 262 262 262 262 260 257 255 253 253 253 254 254 254 251 247 243 239 235 234 236 237 239 241 241 240 241 240
312 312 312 312 311 310 309 307 306 304 304 303 303 302 301 299 297 295 293 292 291 291 292 292 290 288 287 286 286 288 289 290 291 292 292 293 293 292 291 289 285 279 273 268 265 263 262 261 260 260 260 261 260 258 256 254 253 253 253 253 251 247 243 240 237 234 236 239 239 240 243 243 242 242
311 312 312 312 311 310 308 306 304 302 300 298 298 297 297 298 297 296 294 291 289 289 290 290 289 289 288 285 284 285 286 286 286 288 289 290 290 289 289 287 287 285 279 273 267 264 262 261 260 259 258 259 260 260 259 257 254 252 252 252 251 248 244 241 239 235 233 237 240 241 244 245 242 242
312 312 312 312 312 311 309 307 306 303 301 298 296 294 293 293 293 294 293 292 290 287 287 288 288 287 287 286 284 284 284 285 284 284 285 286 286 287 287 286 287 287 286 280 273 267 263 261 260 259 258 258 258 259 259 259 257 253 251 250 250 248 245 242 240 236 232 234 239 242 242 242 240 242
313 313 312 312 311 310 309 308 307 305 303 301 298 296 293 291 290 289 289 289 289 288 286 286 286 285 285 285 285 284 283 284 284 284 283 283 284 285 286 286 286 286 285 284 279 272 266 262 261 260 258 258 258 258 258 258 258 257 253 250 248 247 246 243 240 238 234 234 238 242 244 243 240 241
311 311 310 310 309 309 308 307 306 305 304 302 300 298 296 293 291 289 287 286 286 286 286 286 285 285 284 283 283 283 283 282 281 281 282 283 283 284 285 285 285 285 283 282 281 277 271 265 260 259 258 257 257 257 258 257 257 258 256 251 248 246 245 244 241 239 237 237 239 242 245 245 242 241
309 308 308 307 307 307 306 306 305 304 304 303 301 299 297 295 292 289 287 286 285 284 284 284 284 284 284 282 281 281 281 280 278 279 281 283 282 282 283 283 284 284 283 281 279 278 275 269 262 258 256 255 255 255 257 257 257 257 257 254 250 245 243 243 242 240 238 238 239 241 243 245 244 243
308 308 307 306 306 306 305 305 305 304 303 302 300 298 297 295 292 290 288 286 285 283 283 282 282 284 284 282 281 279 277 276 277 279 280 280 279 280 282 282 281 282 283 282 280 277 276 274 268 262 255 252 253 255 257 257 257 257 257 256 253 247 242 241 241 241 239 239 239 240 242 244 244 243
309 309 308 307 306 306 306 306 305 304 302 299 296 295 293 291 289 288 287 286 284 283 283 282 282 283 282 280 279 278 276 275 275 276 278 279 279 280 282 281 279 280 282 282 282 279 277 276 273 267 261 254 251 253 255 256 257 257 258 258 256 253 246 241 240 241 240 240 239 239 240 242 243 243
310 309 309 308 308 308 308 307 306 305 303 301 299 296 293 288 282 278 278 279 279 280 281 281 281 281 280 278 278 278 278 277 275 274 275 278 280 280 281 281 279 280 282 283 283 281 279 277 274 271 267 261 255 252 252 255 259 260 259 259 259 257 253 246 241 240 241 241 239 238 239 240 243 243
311 310 310 310 310 309 310 310 309 308 307 305 304 301 297 293 287 279 274 273 273 274 275 274 273 273 274 276 277 278 279 279 279 279 277 274 275 276 277 278 278 279 282 284 284 282 280 277 275 272 269 266 262 256 252 254 257 260 260 259 259 258 257 252 246 241 240 240 240 239 238 239 241 242
311 311 312 312 312 313 313 313 312 312 311 310 308 305 303 301 298 292 284 278 276 274 273 272 269 267 269 272 273 272 274 277 280 282 280 276 272 272 272 273 275 278 281 281 282 281 279 278 277 272 267 266 266 262 257 253 254 257 259 260 259 258 257 256 251 246 241 240 240 240 239 239 240 241
312 313 313 313 314 315 314 314 315 316 316 314 311 307 304 302 300 296 290 285 282 278 275 275 274 273 273 274 272 272 273 276 277 277 276 275 273 272 272 272 273 274 275 276 277 277 276 276 276 272 267 266 267 265 261 257 254 254 257 259 259 257 256 255 253 250 246 242 240 240 239 239 240 240
313 314 314 315 316 315 315 315 317 318 316 312 307 304 302 301 301 297 292 288 286 282 279 279 280 282 282 281 279 279 279 278 278 276 274 273 274 273 272 271 269 268 268 268 269 270 271 272 271 271 270 270 269 267 265 263 258 254 254 256 258 256 254 253 251 250 248 245 242 240 239 239 239 240
314 314 315 316 316 314 313 315 317 319 316 308 303 303 304 304 303 300 296 290 284 282 282 281 281 282 284 285 283 282 281 279 277 278 277 276 275 272 269 268 268 267 265 263 261 264 268 269 268 269 271 271 270 269 268 267 263 257 254 254 255 256 254 252 250 249 249 246 244 242 240 239 238 239
313 314 314 315 314 312 312 316 320 319 311 302 300 302 302 301 299 299 300 297 291 289 288 283 280 280 282 283 283 281 281 280 279 278 275 273 273 274 271 268 267 268 265 262 259 259 262 265 265 267 268 268 268 269 268 267 265 262 258 254 253 254 254 253 250 249 248 247 245 243 241 240 238 237
312 313 313 315 315 313 314 318 317 308 300 297 296 297 297 296 296 297 300 301 299 299 298 293 290 289 287 287 287 286 285 283 280 277 271 269 271 274 273 270 271 271 268 263 259 256 258 261 262 263 265 266 265 265 266 265 265 264 261 256 252 251 251 251 250 248 246 246 246 244 241 239 236 234
311 313 314 315 316 314 314 317 313 301 295 294 294 294 294 293 294 297 301 301 300 299 299 297 297 296 295 295 294 292 291 288 284 281 276 272 270 269 268 268 270 272 270 266 259 254 255 259 259 258 259 261 262 263 263 263 264 263 262 259 255 251 249 249 248 244 241 242 243 243 241 237 231 229
313 313 313 315 317 317 317 317 312 304 299 298 297 297 295 294 296 301 302 301 299 298 296 296 296 295 296 296 293 292 291 290 287 285 281 278 273 268 265 265 266 266 265 264 263 257 255 257 258 256 254 255 259 263 262 261 262 263 262 260 257 253 250 247 246 242 239 238 238 238 237 235 229 228
307 307 309 311 315 318 318 316 311 307 305 301 297 295 295 295 298 300 300 299 299 297 296 295 294 293 292 291 290 290 290 290 289 286 282 279 275 270 265 263 263 263 260 257 260 262 260 258 257 256 254 252 254 258 259 258 259 260 261 260 258 255 251 247 245 242 238 236 234 232 232 231 229 228
303 304 307 309 312 315 315 313 311 309 306 301 296 293 293 294 294 294 295 296 296 295 294 293 292 291 290 290 290 290 290 290 290 287 283 281 276 272 268 264 263 263 260 257 257 260 261 260 257 254 252 250 252 254 253 253 255 257 258 257 256 254 251 246 244 243 240 235 232 230 229 228 227 227
304 305 306 309 313 316 314 311 308 306 303 299 294 292 291 291 291 291 292 293 293 292 292 291 290 290 291 291 291 291 292 294 293 289 285 282 278 274 271 267 264 264 263 261 257 255 256 257 256 251 249 248 250 251 250 250 253 254 254 255 255 253 250 246 244 243 241 237 233 230 228 228 226 226
305 306 307 309 310 310 308 304 301 299 297 294 293 292 291 290 291 292 292 293 293 293 292 292 292 292 292 292 292 292 294 295 294 291 287 284 281 275 272 269 265 264 264 263 257 252 253 254 252 250 248 246 246 247 248 249 251 251 252 253 253 250 248 246 244 243 241 237 232 228 226 226 225 224
303 303 304 304 303 304 304 303 303 302 300 298 297 296 294 293 293 294 295 296 296 295 294 294 293 293 293 293 292 292 293 293 291 290 289 286 283 279 275 272 268 264 261 260 256 253 253 253 251 249 248 246 244 244 246 247 249 250 250 250 250 251 250 247 245 244 241 236 231 226 224 224 223 222
305 308 311 310 308 307 306 305 304 303 301 299 298 298 298 298 299 300 300 299 298 297 296 295 294 294 295 295 295 294 293 291 289 289 289 287 286 283 278 275 274 269 263 259 258 254 252 253 252 249 248 246 243 242 243 244 246 248 249 249 250 249 248 245 245 244 242 238 233 229 226 225 224 223
315 316 312 306 302 302 302 301 300 299 298 298 300 302 304 304 303 303 302 302 300 299 298 297 298 299 299 299 298 297 294 291 289 289 288 286 285 284 279 275 275 275 270 265 262 258 253 252 251 250 248 246 243 242 242 242 243 245 246 247 247 247 247 247 245 242 242 240 235 230 227 225 224 224
311 304 298 297 300 303 304 305 304 302 301 301 301 302 303 303 303 304 306 307 306 303 302 302 301 302 301 300 298 296 293 290 289 289 287 284 283 283 279 274 273 275 274 270 267 263 258 252 250 249 247 245 243 242 241 240 241 242 244 245 246 248 250 249 247 246 244 239 234 229 226 224 223 223
299 297 300 305 309 310 310 310 310 307 306 306 305 305 305 305 306 308 311 312 310 308 307 304 303 302 302 300 298 295 291 289 290 289 286 283 284 283 279 275 274 274 274 272 270 268 263 256 252 249 247 244 243 242 240 239 239 239 240 243 244 245 246 246 246 247 244 237 233 229 226 224 223 223
300 304 309 312 312 312 312 313 313 312 312 312 310 308 307 307 309 313 314 313 313 313 310 307 306 304 302 300 299 296 292 290 290 289 285 282 281 280 277 275 275 275 274 272 270 268 264 259 254 249 245 244 244 243 239 238 238 238 238 240 241 243 244 244 244 244 241 239 237 231 225 224 224 224
308 311 313 313 314 314 313 314 315 316 315 314 312 311 309 308 311 315 315 315 317 317 315 312 311 309 306 303 300 297 294 291 289 287 286 283 280 278 276 275 276 276 275 272 268 264 260 254 249 243 240 239 241 240 237 235 235 235 235 237 240 242 243 242 241 240 238 238 236 230 226 224 224 224
313 314 315 315 316 317 316 317 317 317 317 316 315 315 314 313 314 315 315 318 320 320 317 315 314 312 310 306 303 298 294 291 288 286 286 284 282 280 279 279 281 280 274 267 262 258 255 249 243 238 235 232 231 233 234 233 233 232 232 235 238 240 240 239 238 235 235 235 233 229 227 227 227 225
315 317 318 320 322 324 323 323 322 320 319 318 318 318 318 317 317 317 319 322 322 319 318 317 315 314 312 309 306 302 297 293 288 287 286 286 286 286 285 287 289 283 270 262 259 256 251 245 238 234 231 227 225 228 232 233 232 231 231 232 235 237 238 236 233 231 232 233 233 233 233 233 232 230
325 327 328 329 331 330 329 327 326 325 324 323 322 322 321 320 321 323 324 324 323 321 321 320 318 316 315 312 308 305 302 298 293 290 289 289 289 290 291 294 295 287 273 265 261 254 248 242 235 230 228 225 223 226 229 231 233 233 231 231 233 235 235 234 233 232 232 232 233 235 236 234 233 234
340 340 339 338 337 335 333 332 332 330 330 330 329 328 327 326 327 327 326 326 324 323 321 320 319 318 316 313 309 305 302 298 294 291 291 291 291 292 294 296 297 293 284 274 261 249 243 239 234 231 232 232 230 229 229 231 236 240 238 236 236 236 236 235 236 237 236 234 232 230 228 228 230 232
350 349 346 341 339 337 336 335 335 335 336 336 335 334 332 330 329 329 330 329 328 326 323 320 320 319 317 314 312 308 302 298 295 293 292 291 291 292 293 294 294 291 284 273 257 239 231 231 232 233 238 242 241 239 236 236 240 244 243 241 241 241 240 241 241 239 236 233 229 226 225 226 226 225
359 357 353 347 342 340 339 338 338 338 338 339 340 339 336 333 331 331 332 331 328 328 326 324 322 321 318 316 315 312 307 301 296 293 291 290 290 292 293 291 292 288 275 263 255 242 233 234 237 237 239 243 243 240 235 234 238 241 241 241 242 240 239 240 242 242 240 235 228 223 223 224 224 224
1 359 358 353 348 343 341 340 340 340 340 341 344 343 341 338 336 334 333 331 329 329 328 326 324 323 321 320 320 318 313 306 298 293 290 288 288 293 294 290 292 290 272 254 250 249 245 242 238 232 231 234 234 232 230 231 234 238 241 242 242 238 234 235 237 239 239 237 232 226 223 220 217 218
359 359 359 357 354 349 345 343 343 344 344 344 346 346 345 343 341 339 337 335 333 333 331 327 325 324 324 324 322 320 318 315 307 299 293 289 287 291 293 291 293 295 279 256 246 246 245 243 237 230 228 230 230 230 234 237 237 238 239 239 238 234 230 229 230 230 231 232 233 234 234 231 226 224
357 358 359 359 357 354 351 348 348 349 348 347 347 347 348 346 345 343 341 339 337 336 333 330 327 326 325 325 324 321 319 319 316 307 299 293 289 288 289 289 290 291 282 265 254 250 249 248 244 235 230 232 233 236 239 239 237 237 237 237 235 231 226 224 223 223 224 226 227 229 232 234 235 237
354 357 359 360 357 355 353 353 355 355 354 351 349 349 349 349 348 346 344 342 340 337 335 333 331 329 327 326 325 324 322 320 318 312 305 301 295 290 288 287 284 281 276 268 262 256 251 248 244 237 234 236 238 239 238 236 234 235 234 231 228 223 220 219 218 217 218 219 222 225 227 229 232 236